This is the latest recevied weather packets stored in our database for station/object N0QWM. If no packets are shown the sender has not sent any weather packets the latest 10 day(s).
| Time | Temp. | Humidity | Pressure | Rain* | Wind** | Luminosity | Snow |
|---|---|---|---|---|---|---|---|
| 1788557280 | 37.22° C | 48% | 1018.2 hPa | 0 mm | - | 304 W/m² | - |
| 1788556980 | 36.67° C | 49% | 1018.5 hPa | 0 mm | - | 286 W/m² | - |
| 1788556675 | 36.67° C | 50% | 1018.3 hPa | 0 mm | - | 378 W/m² | - |
| 1788556369 | 36.67° C | 50% | 1018.4 hPa | 0 mm | - | 374 W/m² | - |
| 1788556064 | 37.22° C | 49% | 1018.2 hPa | 0 mm | - | 378 W/m² | - |
| 1788555759 | 37.22° C | 50% | 1018.3 hPa | 0 mm | - | 387 W/m² | - |
| 1788555455 | 37.22° C | 49% | 1018.1 hPa | 0 mm | - | 350 W/m² | - |
| 1788555151 | 37.22° C | 49% | 1018.3 hPa | 0 mm | - | 305 W/m² | - |
| 1788554847 | 37.22° C | 49% | 1018.3 hPa | 0 mm | - | 385 W/m² | - |
| 1788554543 | 36.67° C | 50% | 1018.8 hPa | 0 mm | - | 360 W/m² | - |
| 1788554239 | 36.11° C | 51% | 1018.5 hPa | 0 mm | - | 433 W/m² | - |
| 1788553936 | 36.11° C | 52% | 1018.5 hPa | 0 mm | - | 490 W/m² | - |
| 1788553631 | 35.56° C | 55% | 1018.8 hPa | 0 mm | - | 488 W/m² | - |
| 1788553328 | 35.56° C | 55% | 1018.9 hPa | 0 mm | - | 76 W/m² | - |
| 1788553028 | 35.56° C | 54% | 1019.2 hPa | 0 mm | - | 98 W/m² | - |
| 1788552721 | 36.67° C | 51% | 1019.1 hPa | 0 mm | - | 107 W/m² | - |
| 1788552416 | 36.67° C | 51% | 1019.3 hPa | 0 mm | - | 497 W/m² | - |
| 1788552112 | 37.22° C | 50% | 1019.2 hPa | 0 mm | - | 482 W/m² | - |
| 1788551810 | 37.22° C | 49% | 1019.3 hPa | 0 mm | - | 557 W/m² | - |
| 1788551510 | 36.67° C | 49% | 1019.4 hPa | 0 mm | - | 517 W/m² | - |
| 1788551205 | 36.67° C | 51% | 1019.5 hPa | 0 mm | - | 548 W/m² | - |
| 1788550904 | 36.11° C | 53% | 1019.4 hPa | 0 mm | - | 533 W/m² | - |
| 1788550599 | 35.56° C | 54% | 1019.6 hPa | 0 mm | - | 544 W/m² | - |
| 1788550296 | 35° C | 56% | 1019.8 hPa | 0 mm | - | 340 W/m² | - |
| 1788549995 | 36.11° C | 53% | 1019.7 hPa | 0 mm | - | 96 W/m² | - |
* Rain latest hour (hover to see other rain measurements)
** Current wind speed in m/s (hover to see current wind gust speed)